User: anonymous   Login
Location: Bushey
(51.6333°N, 0.3667°W)
Time: 01:55:00
(UTC+00:00)
Language:

Cosmos 1844 Rocket - Orbit

View from above orbital plane
View from above orbital plane
View from above satellite
View from above satellite

Ground track
Ground track

The orbit data is extracted from the following two-line orbital elements,

1 17974U 87041B   21125.43899819  .00000196  00000-0  12055-3 0  9992
2 17974  71.0065 161.6405 0012994  18.8297  77.6631 14.17274291757391
Epoch (UTC): 05 May 2021 10:32:09
Eccentricity: 0.0012994
inclination: 71.0065°
perigee height: 825 km
apogee height: 844 km
right ascension of ascending node: 161.6405°
argument of perigee: 18.8297°
revolutions per day: 14.17274291
mean anomaly at epoch: 77.6631°
orbit number at epoch: 75739

The dashed part of the orbit path shows where the satellite is in the earth's shadow,  

DLR